Reading, PA

7:06 PM EST on November 21, 2019 (GMT -0500)
Reading Regional-Spaatz

Weather History for KRDG - July, 2019

Change the Weather History Date:

Tuesday, July 16, 2019

  Actual Average Record
Temperature  
Mean Temperature 79 °F 75 °F  
Max Temperature 92 °F 86 °F 100 °F (1900)
Min Temperature 65 °F 65 °F 50 °F (1889)
Degree Days  
Heating Degree Days 0 0  
Month to date heating degree days 0 0  
Since 1 June heating degree days 16 24  
Since 1 July heating degree days 0 0  
Cooling Degree Days 14 10  
Month to date cooling degree days 205 157  
Year to date cooling degree days 515 406  
Since 1 June cooling degree days 410 346  
Growing Degree Days 28 (Base 50)    
Moisture  
Dew Point 69 °F    
Average Humidity 75    
Maximum Humidity 100    
Minimum Humidity 49    
Precipitation  
Precipitation 0.11 in 0.15 in 2.66 in (1925)
Month to date precipitation 3.39 2.29  
Year to date precipitation 34.75 23.09  
Sea Level Pressure  
Sea Level Pressure 30.06 in    
Wind  
Wind Speed 4 mph (SW)    
Max Wind Speed 18 mph    
Max Gust Speed 28 mph    
Visibility 10 miles    
Events Rain    
T = Trace of Precipitation, MM = Missing Value Source: NWS Daily Summary

Daily Weather History Graph

Daily Weather History Graph

Search for Another Location

Airport or City:

Astronomy

Jul. 16, 2019 Rise Set
Actual Time 5:47 AM EDT 8:32 PM EDT
Civil Twilight 5:15 AM EDT 9:04 PM EDT
Nautical Twilight 4:34 AM EDT 9:44 PM EDT
Astronomical Twilight 3:48 AM EDT 10:30 PM EDT
Moon 8:36 PM EDT (7/16) 5:23 AM EDT (7/16)
Length of Visible Light 15h 49m
Length of Day
14h 45m
Full, 100% of the Moon is Illuminated
Jul 16
Full
Jul 16
Full
Jul 24
Last Quarter
Jul 31
New
Aug 7
First Quarter

Hourly Weather History & Observations

Time (EDT) Temp. Heat Index Dew Point Humidity Pressure Visibility Wind Dir Wind Speed Gust Speed Precip Events Conditions
12:54 AM 68.0 °F - 64.9 °F 90% 30.08 in 10.0 mi Calm Calm - N/A   Clear
1:54 AM 66.9 °F - 66.0 °F 97% 30.08 in 10.0 mi Calm Calm - N/A   Clear
2:54 AM 66.0 °F - 64.9 °F 96% 30.07 in 10.0 mi Calm Calm - N/A   Clear
3:54 AM 66.0 °F - 64.9 °F 96% 30.06 in 10.0 mi Calm Calm - N/A   Clear
4:54 AM 64.9 °F - 64.9 °F 100% 30.08 in 10.0 mi Calm Calm - N/A   Clear
5:54 AM 64.9 °F - 64.9 °F 100% 30.08 in 10.0 mi Calm Calm - N/A   Clear
6:54 AM 66.9 °F - 66.0 °F 97% 30.09 in 10.0 mi Calm Calm - N/A   Clear
7:54 AM 73.0 °F - 66.9 °F 81% 30.10 in 10.0 mi Calm Calm - N/A   Clear
8:54 AM 78.1 °F - 68.0 °F 71% 30.11 in 10.0 mi Calm Calm - N/A   Clear
9:54 AM 82.0 °F 85.9 °F 70.0 °F 67% 30.11 in 10.0 mi WSW 4.6 mph - N/A   Clear
10:54 AM 84.9 °F 88.8 °F 69.1 °F 59% 30.09 in 10.0 mi SW 5.8 mph - N/A   Clear
11:54 AM 87.1 °F 89.9 °F 66.9 °F 51% 30.09 in 10.0 mi SW 10.4 mph - N/A   Clear
12:54 PM 89.1 °F 93.7 °F 69.1 °F 52% 30.07 in 10.0 mi SSW 8.1 mph - N/A   Clear
1:54 PM 90.0 °F 94.5 °F 69.1 °F 50% 30.05 in 10.0 mi WSW 8.1 mph - N/A   Clear
2:54 PM 91.0 °F 96.6 °F 70.0 °F 50% 30.04 in 10.0 mi SSW 5.8 mph - N/A   Clear
3:54 PM 90.0 °F 95.4 °F 70.0 °F 52% 30.02 in 10.0 mi West 9.2 mph - N/A   Clear
4:54 PM 90.0 °F 96.9 °F 72.0 °F 55% 30.01 in 10.0 mi SW 6.9 mph - N/A   Clear
5:54 PM 88.0 °F 93.8 °F 71.1 °F 57% 30.01 in 10.0 mi West 5.8 mph - N/A   Clear
6:54 PM 84.0 °F 91.9 °F 75.0 °F 74% 30.02 in 10.0 mi WNW 8.1 mph - 0.00 in Rain Light Rain
7:54 PM 73.9 °F - 71.1 °F 91% 30.05 in 10.0 mi SSW 5.8 mph - 0.11 in Rain Light Rain
8:54 PM 73.9 °F - 72.0 °F 93% 30.03 in 10.0 mi Calm Calm - 0.00 in   Clear
9:54 PM 73.9 °F - 72.0 °F 93% 30.04 in 10.0 mi South 3.5 mph - 0.00 in   Scattered Clouds
10:54 PM 73.9 °F - 73.0 °F 97% 30.04 in 10.0 mi Calm Calm - N/A   Overcast
11:54 PM 73.9 °F - 73.0 °F 97% 30.03 in 10.0 mi SSW 3.5 mph - 0.00 in   Partly Cloudy